Tracking 20712 objects as of 29-May-2020
HD Live streaming from Space Station
objects crossing your sky now

BREEZE-M DEB (TANK)

Track BREEZE-M DEB (TANK) now!
10-day predictions


NORAD ID: 44627
Int'l Code: 2019-067D
Perigee: 330.9 km
Apogee: 19,376.6 km
Inclination: 50.4 °
Period: 342.8 minutes
Semi major axis: 16224 km
RCS: Unknown
Launch date: October 9, 2019
Source: Commonwealth of Independent States (former USSR) (CIS)
Launch site: TYURATAM MISSILE AND SPACE COMPLEX (TTMTR)

Note: This is SATELLITE DEBRIS
aabbcc
Your satellite tracking list
Your tracking list is empty




NASA's NSSDC Master Catalog

Two Line Element Set (TLE):
1 44627U 19067D   20150.23982224  .00000042  00000-0  34553-4 0  9996
2 44627  50.4418  50.8464 5869317 278.2521  22.8363  4.20084277  9782
Source of the keplerian elements: AFSPC